Hallock, MN

5:13 PM CDT on April 21, 2018 (GMT -0500)
Hallock Municipal

Weather History for KHCO - June, 2013

Change the Weather History Date:

Tuesday, June 25, 2013

  Actual Average Record
Temperature  
Mean Temperature 76 °F -  
Max Temperature 89 °F 77 °F 94 °F (1988)
Min Temperature 62 °F 55 °F 38 °F (1940)
Cooling Degree Days 10    
Growing Degree Days 26 (Base 50)    
Moisture  
Dew Point 66 °F    
Average Humidity 72    
Maximum Humidity 94    
Minimum Humidity 46    
Precipitation  
Precipitation 0.89 in - - ()
Sea Level Pressure  
Sea Level Pressure 29.69 in    
Wind  
Wind Speed 8 mph (SE)    
Max Wind Speed 37 mph    
Max Gust Speed 62 mph    
Visibility 10 miles    
Events Rain , Thunderstorm    
Averages and records for this station are not official NWS values.
T = Trace of Precipitation, MM = Missing Value Source: NWS Daily Summary

Daily Weather History Graph

Daily Weather History Graph

Search for Another Location

Airport or City:

Astronomy

Jun. 25, 2013 Rise Set
Actual Time 5:25 AM CDT 9:34 PM CDT
Civil Twilight 4:43 AM CDT 10:17 PM CDT
Nautical Twilight 3:43 AM CDT 11:17 PM CDT
Astronomical Twilight 2:02 AM CDT 12:58 AM CDT
Moon 11:02 PM CDT (6/25) 8:22 AM CDT (6/25)
Length of Visible Light 17h 33m
Length of Day
16h 08m
Waning Gibbous, 92% of the Moon is Illuminated
Jun 25
Waning Gibbous
Jun 29
Last Quarter
Jul 8
New
Jul 15
First Quarter
Jul 22
Full

Hourly Weather History & Observations

Time (CDT) Temp. Heat Index Dew Point Humidity Pressure Visibility Wind Dir Wind Speed Gust Speed Precip Events Conditions
12:13 AM 66.2 °F - 60.8 °F 83% 29.74 in 10.0 mi South 6.9 mph - N/A   Clear
12:33 AM 66.2 °F - 60.8 °F 83% 29.74 in 10.0 mi South 4.6 mph - N/A   Clear
12:53 AM 64.4 °F - 60.8 °F 88% 29.74 in 10.0 mi SSE 6.9 mph - N/A   Clear
1:14 AM 64.4 °F - 60.8 °F 88% 29.74 in 10.0 mi SE 4.6 mph - N/A   Clear
1:33 AM 64.4 °F - 60.8 °F 88% 29.74 in 10.0 mi SE 5.8 mph - N/A   Clear
1:53 AM 64.4 °F - 60.8 °F 88% 29.74 in 10.0 mi SE 5.8 mph - N/A   Clear
2:14 AM 62.6 °F - 60.8 °F 94% 29.73 in 10.0 mi SE 5.8 mph - N/A   Clear
2:33 AM 64.4 °F - 60.8 °F 88% 29.73 in 10.0 mi SSE 5.8 mph - N/A   Clear
2:53 AM 62.6 °F - 60.8 °F 94% 29.73 in 10.0 mi SE 5.8 mph - N/A   Clear
3:14 AM 64.4 °F - 60.8 °F 88% 29.72 in 10.0 mi SE 6.9 mph - N/A   Clear
3:33 AM 64.4 °F - 60.8 °F 88% 29.71 in 10.0 mi SE 6.9 mph - N/A   Clear
3:53 AM 64.4 °F - 60.8 °F 88% 29.72 in 10.0 mi SE 6.9 mph - N/A   Clear
4:13 AM 64.4 °F - 60.8 °F 88% 29.72 in 10.0 mi SE 8.1 mph - N/A   Clear
4:33 AM 64.4 °F - 60.8 °F 88% 29.73 in 10.0 mi SE 6.9 mph - N/A   Clear
4:53 AM 62.6 °F - 60.8 °F 94% 29.73 in 10.0 mi SE 8.1 mph - N/A   Clear
5:13 AM 64.4 °F - 60.8 °F 88% 29.73 in 10.0 mi SE 6.9 mph - N/A   Clear
5:33 AM 64.4 °F - 62.6 °F 94% 29.73 in 10.0 mi SE 6.9 mph - N/A   Clear
5:53 AM 66.2 °F - 62.6 °F 88% 29.74 in 10.0 mi ESE 5.8 mph - N/A   Clear
6:13 AM 64.4 °F - 62.6 °F 94% 29.74 in 10.0 mi East 6.9 mph - N/A   Clear
6:33 AM 66.2 °F - 62.6 °F 88% 29.73 in 10.0 mi ESE 5.8 mph - N/A   Clear
6:53 AM 68.0 °F - 64.4 °F 88% 29.73 in 10.0 mi SE 4.6 mph - N/A   Clear
7:13 AM 69.8 °F - 66.2 °F 88% 29.73 in 10.0 mi SE 6.9 mph - N/A   Clear
7:33 AM 71.6 °F - 66.2 °F 83% 29.73 in 10.0 mi SSE 8.1 mph - N/A   Clear
7:53 AM 71.6 °F - 68.0 °F 88% 29.73 in 10.0 mi SSE 6.9 mph - N/A   Clear
8:13 AM 73.4 °F - 69.8 °F 88% 29.73 in 10.0 mi South 9.2 mph - N/A   Clear
8:33 AM 73.4 °F - 69.8 °F 88% 29.72 in 10.0 mi South 9.2 mph - N/A   Clear
8:53 AM 75.2 °F - 69.8 °F 83% 29.73 in 10.0 mi SSE 6.9 mph - N/A   Clear
9:13 AM 75.2 °F - 69.8 °F 83% 29.72 in 10.0 mi SE 5.8 mph - N/A   Clear
9:33 AM 77.0 °F - 69.8 °F 78% 29.73 in 10.0 mi South 4.6 mph - N/A   Clear
9:53 AM 78.8 °F - 69.8 °F 74% 29.73 in 10.0 mi SSE 6.9 mph - N/A   Clear
10:13 AM 78.8 °F - 69.8 °F 74% 29.72 in 10.0 mi SSE 10.4 mph - N/A   Clear
10:33 AM 80.6 °F 83.9 °F 69.8 °F 70% 29.71 in 10.0 mi SSE 8.1 mph - N/A   Clear
10:53 AM 80.6 °F 83.9 °F 69.8 °F 70% 29.71 in 10.0 mi SSE 8.1 mph - N/A   Scattered Clouds
11:13 AM 82.4 °F 87.2 °F 71.6 °F 70% 29.71 in 10.0 mi South 8.1 mph - N/A   Scattered Clouds
11:33 AM 82.4 °F 86.3 °F 69.8 °F 66% 29.71 in 10.0 mi South 9.2 mph - N/A   Scattered Clouds
11:53 AM 82.4 °F 86.3 °F 69.8 °F 66% 29.71 in 10.0 mi South 11.5 mph - N/A   Clear
12:13 PM 82.4 °F 85.4 °F 68.0 °F 62% 29.71 in 10.0 mi South 9.2 mph - N/A   Clear
12:33 PM 82.4 °F 85.4 °F 68.0 °F 62% 29.71 in 10.0 mi SE 11.5 mph - N/A   Clear
12:53 PM 84.2 °F 88.4 °F 69.8 °F 62% 29.71 in 10.0 mi ESE 8.1 mph - N/A   Clear
1:13 PM 84.2 °F 87.3 °F 68.0 °F 58% 29.70 in 10.0 mi ESE 11.5 mph - N/A   Clear
1:33 PM 84.2 °F 86.6 °F 66.2 °F 55% 29.70 in 10.0 mi SE 9.2 mph 12.7 mph N/A   Clear
1:53 PM 86.0 °F 88.2 °F 66.2 °F 51% 29.70 in 10.0 mi SE 11.5 mph 17.3 mph N/A   Clear
2:13 PM 86.0 °F 89.4 °F 68.0 °F 55% 29.70 in 10.0 mi SE 11.5 mph 17.3 mph N/A   Clear
2:33 PM 87.8 °F 90.4 °F 66.2 °F 49% 29.69 in 10.0 mi SE 10.4 mph 17.3 mph N/A   Scattered Clouds
2:53 PM 87.8 °F 90.4 °F 66.2 °F 49% 29.68 in 10.0 mi SSE 15.0 mph - N/A   Scattered Clouds
3:13 PM 87.8 °F 90.4 °F 66.2 °F 49% 29.67 in 10.0 mi SE 10.4 mph 17.3 mph N/A   Scattered Clouds
3:33 PM 87.8 °F 90.4 °F 66.2 °F 49% 29.67 in 10.0 mi SE 15.0 mph 18.4 mph N/A   Scattered Clouds
3:53 PM 87.8 °F 90.4 °F 66.2 °F 49% 29.66 in 10.0 mi SE 12.7 mph 16.1 mph N/A   Scattered Clouds
4:13 PM 89.6 °F 93.4 °F 68.0 °F 49% 29.65 in 10.0 mi SE 10.4 mph - N/A   Clear
4:33 PM 89.6 °F 93.4 °F 68.0 °F 49% 29.65 in 10.0 mi SE 10.4 mph - N/A   Clear
4:53 PM 89.6 °F 92.2 °F 66.2 °F 46% 29.65 in 10.0 mi SSE 10.4 mph - N/A   Clear
5:13 PM 89.6 °F 92.2 °F 66.2 °F 46% 29.64 in 10.0 mi SE 15.0 mph - N/A   Scattered Clouds
5:33 PM 87.8 °F 90.4 °F 66.2 °F 49% 29.64 in 10.0 mi South 11.5 mph - N/A   Scattered Clouds
5:53 PM 87.8 °F 90.4 °F 66.2 °F 49% 29.63 in 10.0 mi SSE 10.4 mph - N/A   Scattered Clouds
6:13 PM 89.6 °F 93.4 °F 68.0 °F 49% 29.63 in 10.0 mi South 10.4 mph 17.3 mph N/A   Scattered Clouds
6:33 PM 89.6 °F 93.4 °F 68.0 °F 49% 29.63 in 10.0 mi South 12.7 mph - N/A   Mostly Cloudy
6:53 PM 87.8 °F 91.4 °F 68.0 °F 52% 29.62 in 10.0 mi SSE 12.7 mph - N/A   Scattered Clouds
7:13 PM 86.0 °F 90.4 °F 69.8 °F 58% 29.61 in 10.0 mi SSE 12.7 mph - N/A   Scattered Clouds
7:33 PM 86.0 °F 89.4 °F 68.0 °F 55% 29.61 in 10.0 mi SSE 11.5 mph - N/A   Clear
7:53 PM 84.2 °F 87.3 °F 68.0 °F 58% 29.62 in 10.0 mi South 9.2 mph - N/A   Clear
8:13 PM 84.2 °F 87.3 °F 68.0 °F 58% 29.62 in 10.0 mi South 10.4 mph - N/A   Clear
8:33 PM 82.4 °F 86.3 °F 69.8 °F 66% 29.62 in 10.0 mi SSE 4.6 mph - N/A   Clear
8:53 PM 80.6 °F 83.9 °F 69.8 °F 70% 29.62 in 10.0 mi SE 4.6 mph - N/A   Clear
9:14 PM 80.6 °F 83.9 °F 69.8 °F 70% 29.62 in 10.0 mi SE 3.5 mph - N/A   Scattered Clouds
9:33 PM 78.8 °F - 69.8 °F 74% 29.61 in 10.0 mi ESE 5.8 mph - N/A   Scattered Clouds
9:53 PM 78.8 °F - 69.8 °F 74% 29.60 in 10.0 mi East 6.9 mph - N/A   Clear
10:14 PM 78.8 °F - 69.8 °F 74% 29.60 in 10.0 mi ENE 6.9 mph - N/A   Scattered Clouds
10:33 PM 77.0 °F - 69.8 °F 78% 29.60 in 10.0 mi East 8.1 mph - N/A   Clear
10:53 PM 77.0 °F - 69.8 °F 78% 29.58 in 10.0 mi East 9.2 mph - N/A   Scattered Clouds
11:14 PM 78.8 °F - 69.8 °F 74% 29.60 in 10.0 mi ESE 9.2 mph - N/A Thunderstorm Mostly Cloudy
11:33 PM 66.2 °F - 64.4 °F 94% 29.75 in 1.2 mi WNW 36.8 mph 62.1 mph 0.20 in Rain , Thunderstorm Heavy Thunderstorms and Rain
11:53 PM 64.4 °F - 62.6 °F 94% 29.72 in 1.5 mi WNW 18.4 mph 25.3 mph 0.89 in Rain , Thunderstorm Heavy Thunderstorms and Rain